#timestamp,LO_Frequency,Hit,StdDev 
1562648415.5,286047003.7,N
1562648435.3,286047003.8,N
1562648455.2,286047001.7,N
1562648475.9,286046999.8,N
1562648495.7,286047002.2,N
1562648515.6,286047002.1,N
1562648535.4,286047000.6,N
1562648555.2,286047000.9,N
1562648575.1,286046998.9,N
1562648576.0,286046998.9,N
1562648595.8,286046993.4,N
1562648615.7,286046996.2,N
1562648635.5,286046998.0,N
1562648655.3,286046995.5,N
1562648675.2,286046993.4,N
1562648695.9,286046992.2,N
1562648715.7,286046992.1,N
1562648735.6,286046993.3,N
1562648755.4,286046996.7,N
1562648775.3,286046999.5,N
1562648795.1,286046998.5,N
1562648796.0,286046998.5,N
1562648815.8,286047001.1,N
1562648835.7,286047002.1,N
1562648855.5,286047001.3,N
1562648875.3,286047002.2,N
1562648895.2,286047002.6,N
1562648915.0,286047002.8,N
1562648915.9,286047002.8,N
1562648935.8,286047000.5,N
1562648955.6,286047000.6,N
1562648975.4,286047001.0,N
1562648995.3,286046999.0,N
1562649015.1,286046998.7,N
1562649035.8,286046998.6,N
1562649055.7,286046998.6,N
1562649075.5,286046998.9,N
1562649095.4,286047001.1,N
1562649115.2,286047000.1,N
1562649135.0,286046998.2,N
1562649135.9,286046998.2,N
1562649155.8,286046996.5,N
1562649175.6,286046997.6,N
1562649195.5,286046993.3,N
1562649215.3,286046995.9,N
1562649235.1,286046995.6,N
1562649255.9,286046995.4,N
1562649275.7,286046997.2,N
1562649295.5,286046995.1,N
1562649315.4,286046993.7,N
1562649335.2,286046995.3,N
1562649355.1,286046996.8,N
1562649356.0,286046996.8,N
1562649375.8,286046996.7,N
1562649395.6,286046998.7,N
1562649415.5,286046997.5,N
1562649435.3,286046999.5,N
1562649455.1,286046997.1,N
1562649475.9,286046996.5,N
1562649495.7,286046998.2,N
1562649515.6,286046998.5,N
1562649535.4,286047000.6,N
1562649555.2,286046998.7,N
1562649575.1,286046999.3,N
1562649576.0,286046999.3,N
1562649595.8,286046997.2,N
1562649615.7,286046995.4,N
1562649635.5,286046997.0,N
1562649655.3,286046999.2,N
1562649675.2,286046996.7,N
1562649695.9,286046997.1,N
1562649715.7,286046996.5,N
1562649735.6,286046997.8,N
1562649755.4,286046997.8,N
1562649775.3,286046999.2,N
1562649795.1,286046997.2,N
1562649796.0,286046997.2,N
1562649815.8,286046997.0,N
1562649835.7,286046995.4,Y
1562649855.5,286046999.5,P
1562649875.3,286046997.1,N
1562649895.2,286046996.7,P
1562649915.0,286046997.5,N
1562649915.9,286046997.5,N
1562649935.8,286046997.0,Y
1562649955.6,286046998.8,P
1562649975.4,286046994.9,P
1562649995.3,286046997.9,N
1562650015.1,286046995.4,Y
1562650035.9,286046997.1,P
1562650055.7,286046997.5,P
1562650075.5,286046993.3,P
1562650095.4,286046993.4,Y
1562650115.2,286046999.3,P
1562650135.0,286047000.6,N
1562650136.0,286047000.6,N
1562650155.8,286047002.2,N
1562650175.6,286047002.9,N
1562650195.5,286047004.6,N
1562650215.3,286047006.1,N
1562650235.1,286047006.6,N
1562650255.9,286047008.9,N
1562650275.7,286047010.4,N
1562650295.6,286047009.0,N
1562650315.4,286047006.6,N
1562650335.2,286047010.7,N
1562650355.1,286047009.4,N
1562650356.0,286047009.4,N
1562650375.8,286047011.1,N
1562650395.6,286047010.8,N
1562650415.5,286047011.9,N
1562650435.3,286047009.4,N
1562650455.2,286047011.7,N
1562650475.9,286047009.8,N
1562650495.7,286047012.0,N
1562650515.6,286047009.8,N
1562650535.4,286047010.4,N
1562650555.2,286047011.0,N
1562650575.1,286047013.7,Y
1562650576.0,286047013.7,P
1562650595.8,286047003.6,N
1562650615.7,286047001.6,N
1562650635.5,286047002.6,N
1562650655.3,286047000.8,N
1562650675.2,286046998.1,N
1562650695.0,286047002.7,N
1562650695.9,286047002.7,N
1562650715.8,286047001.1,N
1562650735.6,286047001.0,N
1562650755.4,286046998.6,N
1562650775.3,286046999.7,N
1562650795.1,286047002.6,N
1562650815.8,286046999.9,N
1562650835.7,286047003.8,N
1562650855.5,286047001.4,N
1562650875.4,286047005.0,N
1562650895.2,286047004.8,N
1562650915.0,286047007.3,N
1562650915.9,286047007.3,N
1562650935.8,286047006.9,N
1562650955.6,286047007.0,N
1562650975.4,286047007.4,N
1562650995.3,286047008.1,N
1562651015.1,286047008.5,N
1562651035.9,286047007.3,N
1562651055.7,286047002.9,N
1562651075.5,286047004.8,N
1562651095.4,286047001.4,N
1562651115.2,286047001.6,N
1562651135.0,286047000.4,N
1562651135.9,286047000.4,N
1562651155.8,286046998.5,N
1562651175.6,286046999.2,N
1562651195.5,286046998.7,N
1562651215.3,286047000.1,N
1562651235.1,286047002.5,N
1562651255.9,286047000.2,N
1562651275.7,286047000.3,N
1562651295.5,286047001.6,N
1562651315.4,286047001.7,N
1562651335.2,286047002.2,N
1562651355.1,286047005.6,N
1562651356.0,286047005.6,N
1562651375.8,286047007.3,N
1562651395.6,286047006.5,N
1562651415.5,286047007.1,N
1562651435.3,286047004.6,N
1562651455.1,286047005.1,N
1562651475.9,286047004.8,N
1562651495.7,286047004.7,N
1562651515.6,286047004.9,N
1562651535.4,286047008.1,N
1562651555.2,286047009.5,Y
1562651575.1,286047006.2,P
1562651576.0,286047006.2,P
1562651595.8,286047003.4,N
1562651615.7,286047005.8,Y
1562651635.5,286047002.5,P
1562651655.3,286046998.2,N
1562651675.2,286046999.5,N
1562651695.0,286047000.4,N
1562651695.9,286047000.4,N
1562651715.7,286047002.3,N
1562651735.6,286047001.6,N
1562651755.4,286047000.8,N
1562651775.3,286047000.4,N
1562651795.1,286047001.2,N
1562651796.0,286047001.2,N
1562651815.8,286046998.3,N
1562651835.7,286046998.6,N
1562651855.5,286047001.5,N
1562651875.3,286047003.6,N
1562651895.2,286047007.3,Y
1562651915.0,286047010.7,P
1562651915.9,286047010.7,N
1562651935.8,286047012.0,N
1562651955.6,286047011.3,N
1562651975.4,286047015.2,Y
1562651995.3,286047003.1,P
